timestamp,wind_dir_avg,wind_spd_avg,wind_spd_max_dir,wind_spd_gust,battery_voltage,lat,long
2022-02-11 00:04:01+00:00,223.0,9.33,234.0,12.08,12.41,47.59359,-54.27349
2022-02-11 00:14:01+00:00,225.0,9.97,231.0,12.81,12.41,47.59359,-54.27349
2022-02-11 00:24:01+00:00,231.0,11.4,229.0,12.87,12.41,47.59359,-54.27349
2022-02-11 00:34:01+00:00,233.0,11.83,234.0,12.96,12.41,47.59359,-54.27349
2022-02-11 00:44:01+00:00,239.0,11.1,235.0,12.42,12.41,47.59359,-54.27349
2022-02-11 00:54:01+00:00,239.0,11.04,241.0,11.98,12.41,47.59359,-54.27349
2022-02-11 01:04:01+00:00,238.0,10.72,239.0,11.46,12.41,47.59359,-54.27349
2022-02-11 01:14:01+00:00,242.0,9.52,245.0,10.8,12.41,47.59359,-54.27349
2022-02-11 01:24:01+00:00,240.0,8.79,241.0,10.26,12.41,47.59359,-54.27349
2022-02-11 01:34:01+00:00,239.0,10.24,238.0,11.06,12.41,47.59359,-54.27349
2022-02-11 01:44:01+00:00,239.0,8.43,244.0,10.4,12.41,47.59359,-54.27349
2022-02-11 01:54:01+00:00,236.0,10.45,240.0,11.72,12.41,47.59359,-54.27349
2022-02-11 02:04:01+00:00,225.0,8.28,236.0,10.96,12.41,47.59359,-54.27349
2022-02-11 02:14:00+00:00,230.0,9.85,238.0,12.04,12.41,47.59359,-54.27349
2022-02-11 02:24:00+00:00,234.0,11.24,232.0,12.03,12.41,47.59359,-54.27349
2022-02-11 02:34:00+00:00,239.0,9.61,238.0,11.05,12.41,47.59359,-54.27349
2022-02-11 02:44:00+00:00,236.0,9.85,241.0,11.14,12.41,47.59359,-54.27349
2022-02-11 02:54:00+00:00,237.0,9.0,239.0,11.22,12.41,47.59359,-54.27349
2022-02-11 03:04:00+00:00,239.0,10.01,238.0,10.98,12.41,47.59359,-54.27349
2022-02-11 03:14:00+00:00,223.0,7.15,235.0,10.53,12.41,47.59359,-54.27349
2022-02-11 03:24:00+00:00,227.0,9.12,230.0,11.0,12.41,47.59359,-54.27349
2022-02-11 03:34:00+00:00,231.0,11.86,226.0,12.7,12.41,47.59359,-54.27349
2022-02-11 03:44:00+00:00,229.0,9.81,227.0,12.57,12.41,47.59359,-54.27349
2022-02-11 03:54:00+00:00,235.0,11.39,232.0,12.34,12.41,47.59359,-54.27349
2022-02-11 04:04:00+00:00,229.0,9.17,237.0,11.36,12.41,47.59359,-54.27349
2022-02-11 04:14:01+00:00,227.0,9.48,235.0,12.06,12.41,47.59359,-54.27349
2022-02-11 04:24:01+00:00,221.0,8.25,239.0,11.06,12.41,47.59359,-54.27349
2022-02-11 04:34:01+00:00,215.0,9.2,232.0,11.6,12.41,47.59359,-54.27349
2022-02-11 04:44:01+00:00,218.0,9.37,228.0,12.75,12.41,47.59359,-54.27349
2022-02-11 04:54:01+00:00,219.0,8.66,231.0,11.09,12.41,47.59359,-54.27349
2022-02-11 05:04:01+00:00,226.0,10.77,228.0,12.78,12.41,47.59359,-54.27349
2022-02-11 05:14:00+00:00,227.0,10.78,230.0,12.91,12.33,47.59359,-54.27349
2022-02-11 05:24:00+00:00,226.0,9.96,228.0,12.42,12.33,47.59359,-54.27349
2022-02-11 05:34:00+00:00,233.0,9.84,237.0,12.09,12.33,47.59359,-54.27349
2022-02-11 05:44:00+00:00,235.0,11.16,230.0,12.13,12.33,47.59359,-54.27349
2022-02-11 05:54:00+00:00,239.0,9.98,240.0,11.16,12.33,47.59359,-54.27349
2022-02-11 06:04:00+00:00,238.0,9.29,242.0,10.79,12.33,47.59359,-54.27349
2022-02-11 06:14:00+00:00,238.0,9.69,237.0,11.37,12.33,47.59359,-54.27349
2022-02-11 06:24:00+00:00,229.0,7.49,222.0,9.7,12.33,47.59359,-54.27349
2022-02-11 06:34:00+00:00,228.0,6.58,240.0,8.04,12.33,47.59359,-54.27349
2022-02-11 06:44:00+00:00,231.0,7.85,227.0,8.86,12.33,47.59359,-54.27349
2022-02-11 06:54:00+00:00,231.0,8.19,233.0,9.9,12.33,47.59359,-54.27349
2022-02-11 07:04:00+00:00,226.0,8.14,236.0,9.91,12.33,47.59359,-54.27349
2022-02-11 07:14:00+00:00,228.0,7.7,240.0,10.28,12.33,47.59359,-54.27349
2022-02-11 07:24:00+00:00,229.0,8.72,237.0,11.15,12.33,47.59359,-54.27349
2022-02-11 07:34:00+00:00,230.0,9.01,229.0,11.25,12.33,47.59359,-54.27349
2022-02-11 07:44:00+00:00,234.0,8.09,238.0,9.51,12.33,47.59359,-54.27349
2022-02-11 07:54:00+00:00,236.0,8.29,242.0,9.65,12.33,47.59359,-54.27349
2022-02-11 08:04:00+00:00,239.0,8.43,242.0,10.09,12.33,47.59359,-54.27349
2022-02-11 08:14:00+00:00,239.0,8.21,247.0,9.43,12.33,47.59359,-54.27349
2022-02-11 08:24:00+00:00,244.0,8.61,249.0,10.08,12.33,47.59359,-54.27349
2022-02-11 08:34:00+00:00,249.0,9.25,249.0,10.31,12.33,47.59359,-54.27349
2022-02-11 08:44:00+00:00,247.0,9.29,255.0,10.78,12.33,47.59359,-54.27349
2022-02-11 08:54:00+00:00,252.0,9.79,251.0,11.09,12.33,47.59359,-54.27349
2022-02-11 09:04:00+00:00,248.0,10.06,252.0,11.39,12.33,47.59359,-54.27349
2022-02-11 09:14:00+00:00,244.0,10.47,242.0,11.66,12.33,47.59359,-54.27349
2022-02-11 09:24:00+00:00,244.0,9.2,246.0,11.11,12.33,47.59359,-54.27349
2022-02-11 09:34:00+00:00,249.0,9.24,249.0,11.33,12.33,47.59359,-54.27349
2022-02-11 09:44:00+00:00,248.0,8.34,253.0,10.49,12.33,47.59359,-54.27349
2022-02-11 09:54:00+00:00,260.0,8.33,267.0,10.52,12.33,47.59359,-54.27349
2022-02-11 10:04:00+00:00,262.0,9.22,258.0,11.07,12.33,47.59359,-54.27349
2022-02-11 10:14:00+00:00,252.0,10.66,251.0,11.46,12.25,47.59359,-54.27349
2022-02-11 10:24:00+00:00,239.0,9.81,245.0,11.86,12.25,47.59359,-54.27349
2022-02-11 10:34:00+00:00,241.0,9.16,249.0,11.43,12.25,47.59359,-54.27349
2022-02-11 10:44:00+00:00,252.0,10.38,253.0,11.17,12.25,47.59359,-54.27349
2022-02-11 10:54:00+00:00,254.0,9.98,259.0,11.19,12.25,47.59359,-54.27349
2022-02-11 11:04:00+00:00,248.0,10.52,244.0,11.86,12.25,47.59359,-54.27349
2022-02-11 11:14:00+00:00,244.0,10.85,243.0,11.51,12.25,47.59359,-54.27349
2022-02-11 11:24:00+00:00,251.0,8.95,253.0,11.06,12.25,47.59359,-54.27349
2022-02-11 11:34:00+00:00,244.0,10.85,242.0,12.05,12.25,47.59359,-54.27349
2022-02-11 11:44:00+00:00,240.0,10.76,240.0,11.89,12.25,47.59359,-54.27349
2022-02-11 11:54:00+00:00,238.0,10.64,236.0,12.37,12.25,47.59359,-54.27349
2022-02-11 12:04:00+00:00,236.0,8.57,240.0,11.36,12.25,47.59359,-54.27349
2022-02-11 12:14:01+00:00,238.0,9.05,240.0,11.46,12.33,47.59359,-54.27349
2022-02-11 12:24:01+00:00,244.0,10.49,247.0,11.52,12.33,47.59359,-54.27349
2022-02-11 12:34:01+00:00,242.0,10.18,242.0,11.78,12.33,47.59359,-54.27349
2022-02-11 12:44:01+00:00,238.0,10.46,241.0,11.73,12.33,47.59359,-54.27349
2022-02-11 12:54:01+00:00,237.0,10.2,239.0,11.64,12.33,47.59359,-54.27349
2022-02-11 13:04:01+00:00,237.0,10.32,239.0,12.07,12.33,47.59359,-54.27349
2022-02-11 13:14:00+00:00,238.0,9.32,231.0,11.43,12.65,47.59359,-54.27349
2022-02-11 13:24:00+00:00,234.0,7.06,243.0,10.2,12.65,47.59359,-54.27349
2022-02-11 13:34:00+00:00,229.0,5.76,244.0,9.32,12.65,47.59359,-54.27349
2022-02-11 13:44:00+00:00,236.0,7.82,243.0,10.0,12.65,47.59359,-54.27349
2022-02-11 13:54:00+00:00,225.0,7.5,237.0,10.77,12.65,47.59359,-54.27349
2022-02-11 14:04:00+00:00,233.0,8.96,237.0,10.54,12.65,47.59359,-54.27349
2022-02-11 14:14:00+00:00,229.0,9.44,234.0,11.26,13.53,47.59359,-54.27349
2022-02-11 14:24:00+00:00,239.0,9.83,240.0,11.7,13.53,47.59359,-54.27349
2022-02-11 14:34:00+00:00,239.0,11.0,234.0,12.11,13.53,47.59359,-54.27349
2022-02-11 14:44:00+00:00,236.0,10.8,241.0,11.83,13.53,47.59359,-54.27349
2022-02-11 14:54:00+00:00,235.0,11.15,236.0,11.99,13.53,47.59359,-54.27349
2022-02-11 15:04:00+00:00,230.0,10.3,229.0,12.0,13.53,47.59359,-54.27349
2022-02-11 15:14:00+00:00,234.0,11.38,233.0,12.54,13.76,47.59359,-54.27349
2022-02-11 15:24:00+00:00,232.0,11.8,233.0,13.04,13.76,47.59359,-54.27349
2022-02-11 15:34:00+00:00,232.0,10.36,239.0,12.24,13.76,47.59359,-54.27349
2022-02-11 15:44:00+00:00,230.0,11.02,229.0,12.12,13.76,47.59359,-54.27349
2022-02-11 15:54:00+00:00,233.0,11.45,234.0,12.95,13.76,47.59359,-54.27349
2022-02-11 16:04:00+00:00,231.0,12.08,230.0,13.28,13.76,47.59359,-54.27349
2022-02-11 16:14:00+00:00,226.0,11.87,230.0,13.04,13.68,47.59359,-54.27349
2022-02-11 16:24:00+00:00,228.0,11.7,228.0,13.19,13.68,47.59359,-54.27349
2022-02-11 16:34:00+00:00,234.0,10.87,233.0,12.59,13.68,47.59359,-54.27349
2022-02-11 16:44:00+00:00,227.0,11.77,228.0,12.88,13.68,47.59359,-54.27349
2022-02-11 16:54:00+00:00,224.0,11.08,228.0,13.04,13.68,47.59359,-54.27349
2022-02-11 17:04:00+00:00,228.0,11.12,229.0,12.61,13.68,47.59359,-54.27349
2022-02-11 17:14:00+00:00,224.0,11.16,231.0,12.77,13.44,47.59359,-54.27349
2022-02-11 17:24:00+00:00,228.0,10.95,229.0,12.63,13.44,47.59359,-54.27349
2022-02-11 17:34:00+00:00,233.0,10.12,233.0,11.91,13.44,47.59359,-54.27349
2022-02-11 17:44:00+00:00,233.0,8.99,237.0,10.31,13.44,47.59359,-54.27349
2022-02-11 17:54:00+00:00,234.0,9.27,238.0,10.35,13.44,47.59359,-54.27349
2022-02-11 18:04:00+00:00,232.0,8.67,234.0,10.16,13.44,47.59359,-54.27349
2022-02-11 18:14:00+00:00,236.0,9.31,233.0,10.24,13.05,47.59359,-54.27349
2022-02-11 18:24:00+00:00,252.0,8.9,254.0,10.22,13.05,47.59359,-54.27349
2022-02-11 18:34:00+00:00,254.0,8.93,259.0,10.82,13.05,47.59359,-54.27349
2022-02-11 18:44:00+00:00,250.0,8.47,245.0,11.12,13.05,47.59359,-54.27349
2022-02-11 18:54:00+00:00,257.0,8.71,256.0,10.27,13.05,47.59359,-54.27349
2022-02-11 19:04:00+00:00,263.0,10.22,264.0,12.59,13.05,47.59359,-54.27349
2022-02-11 19:14:00+00:00,259.0,12.61,266.0,15.31,13.44,47.59359,-54.27349
2022-02-11 19:24:00+00:00,253.0,10.54,252.0,11.83,13.44,47.59359,-54.27349
2022-02-11 19:34:00+00:00,260.0,9.87,259.0,10.8,13.44,47.59359,-54.27349
2022-02-11 19:44:00+00:00,251.0,7.66,247.0,9.43,13.44,47.59359,-54.27349
2022-02-11 19:54:00+00:00,256.0,9.0,259.0,11.47,13.44,47.59359,-54.27349
2022-02-11 20:04:00+00:00,262.0,9.08,266.0,11.1,13.44,47.59359,-54.27349
2022-02-11 20:14:01+00:00,260.0,10.08,261.0,11.78,13.44,47.59359,-54.27349
2022-02-11 20:24:01+00:00,256.0,9.43,259.0,10.94,13.44,47.59359,-54.27349
2022-02-11 20:34:01+00:00,266.0,10.48,268.0,11.86,13.44,47.59359,-54.27349
2022-02-11 20:44:01+00:00,265.0,7.44,260.0,10.25,13.44,47.59359,-54.27349
2022-02-11 20:54:01+00:00,266.0,7.77,271.0,8.95,13.44,47.59359,-54.27349
2022-02-11 21:04:01+00:00,258.0,7.55,274.0,8.63,13.44,47.59359,-54.27349
2022-02-11 21:14:01+00:00,258.0,7.77,257.0,9.24,12.65,47.59359,-54.27349
2022-02-11 21:24:01+00:00,258.0,6.57,256.0,7.68,12.65,47.59359,-54.27349
2022-02-11 21:34:01+00:00,259.0,7.31,259.0,8.2,12.65,47.59359,-54.27349
2022-02-11 21:44:01+00:00,259.0,7.1,255.0,7.71,12.65,47.59359,-54.27349
2022-02-11 21:54:01+00:00,267.0,6.37,269.0,7.25,12.65,47.59359,-54.27349
2022-02-11 22:04:01+00:00,259.0,8.01,258.0,9.38,12.65,47.59359,-54.27349
2022-02-11 22:14:01+00:00,253.0,5.83,258.0,6.83,12.49,47.59359,-54.27349
2022-02-11 22:24:01+00:00,239.0,5.69,237.0,6.53,12.49,47.59359,-54.27349
2022-02-11 22:34:01+00:00,227.0,5.29,225.0,6.45,12.49,47.59359,-54.27349
2022-02-11 22:44:01+00:00,232.0,7.22,248.0,9.0,12.49,47.59359,-54.27349
2022-02-11 22:54:01+00:00,237.0,8.82,248.0,10.31,12.49,47.59359,-54.27349
2022-02-11 23:04:01+00:00,252.0,7.82,252.0,10.0,12.49,47.59359,-54.27349
2022-02-11 23:14:01+00:00,250.0,7.72,255.0,9.02,12.41,47.59359,-54.27349
2022-02-11 23:24:01+00:00,248.0,7.82,251.0,8.94,12.41,47.59359,-54.27349
2022-02-11 23:34:01+00:00,251.0,7.97,256.0,9.29,12.41,47.59359,-54.27349
2022-02-11 23:44:01+00:00,253.0,8.08,255.0,9.44,12.41,47.59359,-54.27349
2022-02-11 23:54:01+00:00,251.0,8.19,260.0,9.95,12.41,47.59359,-54.27349
